TimeCDT,TemperatureF,Dew PointF,Humidity,Sea Level PressureIn,VisibilityMPH,Wind Direction,Wind SpeedMPH,Gust SpeedMPH,PrecipitationIn,Events,Conditions,WindDirDegrees,DateUTC
12:40 AM,62.6,53.6,72,29.88,12.0,SSE,11.5,-,N/A,,Scattered Clouds,160,2013-08-21 05:40:00
12:50 AM,62,51,58,29.90,5,North,4.5,,,,,0,2013-08-21 05:50:00
1:49 AM,62.6,57.2,82,30.28,10.0,SE,9.2,-,N/A,,Mostly Cloudy,140,2013-08-21 06:49:00
2:46 AM,62.6,57.2,82,30.26,10.0,ESE,11.5,-,N/A,,Mostly Cloudy,120,2013-08-21 07:46:00
3:45 AM,62.6,57.2,82,29.81,10.0,ESE,11.5,-,N/A,,Mostly Cloudy,120,2013-08-21 08:45:00
3:50 AM,59,47,56,29.94,5,North,2.2,,,,Mostly Cloudy,0,2013-08-21 08:50:00
4:42 AM,62.6,57.2,82,30.25,10.0,SE,13.8,-,N/A,,Mostly Cloudy,140,2013-08-21 09:42:00
5:42 AM,62.6,57.2,82,30.24,10.0,ESE,9.2,-,N/A,,Mostly Cloudy,120,2013-08-21 10:42:00
6:47 AM,62.6,57.2,82,29.81,10.0,SE,9.2,-,N/A,,Mostly Cloudy,140,2013-08-21 11:47:00
6:50 AM,61,42,38,29.97,5,NNE,2.2,,,,Mostly Cloudy,30,2013-08-21 11:50:00
7:44 AM,60.8,59.0,94,30.26,8.0,ENE,5.8,-,N/A,,Mostly Cloudy,70,2013-08-21 12:44:00
8:44 AM,60.8,60.8,100,30.28,4.0,East,8.1,-,N/A,,Overcast,90,2013-08-21 13:44:00
9:03 AM,59.0,59.0,100,30.28,3.0,NE,4.6,-,N/A,Rain,Rain,50,2013-08-21 14:03:00
9:43 AM,59.0,57.2,94,29.91,3.0,NNE,5.8,-,N/A,,Haze,20,2013-08-21 14:43:00
9:45 AM,61,60,95,30.02,6,NNE,2.2,,,,Haze,30,2013-08-21 14:45:00
10:40 AM,60.8,59.0,94,30.30,5.0,NNE,5.8,-,N/A,,Overcast,20,2013-08-21 15:40:00
11:44 AM,64.4,59.0,83,30.31,10.0,NE,8.1,-,N/A,,Overcast,40,2013-08-21 16:44:00
12:43 PM,66.2,59.0,78,29.94,10.0,NE,11.5,-,N/A,,Overcast,50,2013-08-21 17:43:00
12:50 PM,67,61,75,30.05,7,East,4.5,,,,Haze,90,2013-08-21 17:50:00
1:41 PM,68.0,57.2,68,30.30,10.0,East,17.3,-,N/A,,Overcast,80,2013-08-21 18:41:00
2:48 PM,68.0,57.2,68,30.28,12.0,East,16.1,-,N/A,,Overcast,80,2013-08-21 19:48:00
3:41 PM,68.0,57.2,68,29.86,12.0,East,16.1,-,N/A,,Overcast,80,2013-08-21 20:41:00
4:47 PM,69.8,53.6,56,30.23,12.0,East,11.5,-,N/A,,Overcast,90,2013-08-21 21:47:00
5:44 PM,69.8,53.6,56,30.21,12.0,East,15.0,-,N/A,,Overcast,100,2013-08-21 22:44:00
6:48 PM,66.2,51.8,60,29.87,12.0,ENE,12.7,-,N/A,,Overcast,70,2013-08-21 23:48:00
6:50 PM,67,58,66,29.90,9,East,2.2,,,,Haze,90,2013-08-21 23:50:00
7:47 PM,66.2,51.8,60,30.24,12.0,East,9.2,-,N/A,,Overcast,100,2013-08-22 00:47:00
8:46 PM,64.4,53.6,68,30.26,10.0,ESE,9.2,-,N/A,,Overcast,110,2013-08-22 01:46:00
9:46 PM,64.4,57.2,77,29.92,10.0,SSE,8.1,-,N/A,,Mostly Cloudy,150,2013-08-22 02:46:00
9:50 PM,63,56,70,29.94,5,North,2.2,,,,,0,2013-08-22 02:50:00
10:41 PM,64.4,57.2,77,30.30,10.0,SE,11.5,-,N/A,,Mostly Cloudy,130,2013-08-22 03:41:00
11:41 PM,62.6,57.2,82,30.31,10.0,ESE,5.8,-,N/A,,Mostly Cloudy,120,2013-08-22 04:41:00